www.pogodaiklimat.ru

ПОГОДА в Колдуотере, MI

  • Прогноз погоды в Колдуотере
  • Монитор погоды в Колдуотере
  • Климат в Колдуотере

АРХИВ ПОГОДЫ в Колдуотере

Время (UTC), дата Ветер
(напр.,м/с)
 
Видим.   Явления Облачность Т
(С)
Тd
(С)
f
(%)
Тe
(С)
Тes
(С)
Комфортность

P
(гПа)

Po
(гПа)
Тmin
(С)
Tmax
(С)
R
(мм)
SD
(см)
09:35 26.03 С  16 км    ясно  -3.1  -13.8  43  -6  -6      993.9         
09:55 26.03 С  16 км    ясно  -3.1  -13.2  46  -8  -8      994.2         
10:15 26.03 С  16 км    ясно  -3.0  -13.0  46  -8  -8      994.2         
10:16 26.03 С  16 км    ясно  -3.0  -13.0  46  -8  -8      994.5         
10:35 26.03 С  16 км    ясно  -2.8  -13.0  45  -8  -8      994.5         
10:55 26.03 С  16 км    ясно  -2.6  -12.8  45  -8  -8      994.8  -3.4  -0.9     
11:15 26.03 С  16 км    ясно  -2.0  -12.8  43  -7  -7      994.8         
11:16 26.03 С  16 км    ясно  -2.0  -12.8  43  -8  -7      994.8         
11:35 26.03 С  16 км    ясно  -1.5  -12.5  43  -7  -6      995.2         
11:36 26.03 СВ  16 км    ясно  -1.5  -12.4  43  -7  -6      995.2         
11:55 26.03 СВ  16 км    ясно  -1.0  -12.6  41  -6  -6      995.2         
12:15 26.03 СВ  16 км    ясно  -0.5  -12.4  40  -5  -4      995.5         
12:35 26.03 В  16 км    ясно  -0.1  -12.4  39  -5  -4      995.5         
12:36 26.03 СВ  16 км    ясно  -0.1  -12.4  39  -5  -4      995.5         
12:55 26.03 СВ  16 км    ясно  0.0  -12.3  39  -5  -4      995.5         
12:56 26.03 СВ  16 км    ясно  0.0  -12.3  39  -5  -3      995.5         
13:15 26.03 СВ  16 км    ясно  +0.5  -11.9  39  -4  -0      995.8         
13:35 26.03 СВ  16 км    ясно  +0.9  -12.5  36  -3  +1      996.1         
13:55 26.03 СВ  16 км    ясно  +1.1  -12.7  35  -2  +1      996.1         
13:56 26.03 В  16 км    ясно  +1.1  -12.7  35  -2  +2      996.1         
14:15 26.03 СВ  16 км    ясно  +1.5  -12.3  35  -2  +5      996.1         
14:35 26.03 СВ  16 км    ясно  +2.0  -12.7  33  -1  +5      996.1         
14:55 26.03   16 км    ясно  +2.2  -13.2  31  +2  +13  опасность
простуды 
  996.1         
14:56 26.03   16 км    ясно  +2.3  -13.1  31  +2  +13  опасность
простуды 
  996.1         
15:15 26.03 СВ  16 км    ясно  +3.3  -12.7  30  +1  +11  опасность
простуды 
  996.1         
15:16 26.03   16 км    ясно  +3.3  -12.9  29  +3  +18  опасность
простуды 
  996.1         
15:35 26.03   16 км    ясно  +3.2  -13.2  29  +3  +18  опасность
простуды 
  996.1         
15:36 26.03   16 км    ясно  +3.3  -13.4  28  +3  +18  опасность
простуды 
  996.1         
15:55 26.03   16 км    ясно  +3.9  -13.2  27  +4  +19  опасность
простуды 
  995.8         
16:15 26.03   16 км    ясно  +4.0  -13.6  26  +4  +21  опасность
простуды 
  995.8         
16:35 26.03   16 км    ясно  +4.8  -13.3  26  +5  +22  опасность
простуды 
  995.8         
16:36 26.03   16 км    ясно  +4.8  -13.5  25  +5  +22  опасность
простуды 
  995.8         
16:55 26.03 СВ  16 км    ясно  +5.1  -12.8  26  +4  +18  опасность
простуды 
  995.8  -2.6  +5.1     
17:15 26.03   16 км    ясно  +5.5  -12.2  27  +6  +23  опасность
простуды 
  995.8         
17:35 26.03 С  16 км    ясно  +6.0  -12.0  26  +4  +16  опасность
простуды 
  995.5         
17:36 26.03 С  16 км    ясно  +6.1  -12.2  26  +4  +16  опасность
простуды 
  995.5         
17:55 26.03   16 км    ясно  +6.3  -13.1  23  +6  +24  опасность
простуды 
  995.2         
18:15 26.03 СВ  16 км    ясно  +6.6  -12.3  24  +6  +19  опасность
простуды 
  994.8         
18:35 26.03 СЗ  16 км    ясно  +6.6  -13.5  22  +6  +19  опасность
простуды 
  994.5         
18:55 26.03 С  16 км    ясно  +7.1  -12.6  23  +5  +14  опасность
простуды 
  994.2         
18:56 26.03 С  16 км    ясно  +7.1  -12.5  23  +5  +14  опасность
простуды 
  994.2         
19:15 26.03 В  16 км    ясно  +7.2  -12.4  23  +7  +16  опасность
простуды 
  994.2         
19:16 26.03   16 км    ясно  +7.2  -12.4  23  +7  +20  опасность
простуды 
  994.2         
19:35 26.03 СВ  16 км    ясно  +7.4  -12.4  23  +6  +14      993.9         
19:55 26.03   16 км    ясно  +7.5  -12.7  22  +8  +20  опасность
простуды 
  993.9         
19:56 26.03   16 км    ясно  +7.5  -12.9  22  +8  +20  опасность
простуды 
  993.9         
20:15 26.03   16 км    ясно  +7.5  -13.1  22  +8  +15      993.9         
20:16 26.03   16 км    ясно  +7.5  -13.0  22  +8  +15      993.9         

 

Местоположение метеостанции Branch County Memorial Airport: широта 41.9333 долгота -85.0525 высота над уровнем моря 292 м.

В архиве по умолчанию представлена погода в Колдуотере за последние 1-2 суток. Обновление информации о фактической погоде в базе происходит ежечасно! Архивные данные за месяц целиком и за предыдущие месяцы Вы можете получить, выбрав интересующий диапазон дат из раскрывающегося списка и нажав кнопку "Ввод!".

Внимание! Архив погоды МЕТАР в базе сайта хранится не более 60 дней. Нет смысла пытаться выбрать более раннюю дату.

Внимание! Время в таблицах - всемирное. Для получения местного времени необходимо прибавить поправку, которая в Колдуотере равна -5 ч.

Ветер - указаны скорость ветра в м/с и направление, откуда дует ветер: С - северный, СВ - северо-восточный, В - восточный, ЮВ - юго-восточный, Ю - южный, ЮЗ - юго-западный, З - западный, СЗ - северо-западный.
Видимость - горизонтальная дальность видимости в метрах или километрах. При видимости от 1 до 10 км при отсутствии осадков обычно наблюдается дымка, при ухудшении видимости до 1 км и менее - туман. В сухую погоду видимость может ухудшаться дымом, пылью или мглою.
Атмосферные явления - указаны явления, наблюдавшиеся в указанный момент времени.
Облачность - указаны через наклонную черту верхняя и нижняя облачность в баллах и высота нижней границы облаков в метрах. Внимание: облачность, как и прочие метеорологические величины в США измеряются автоматическими метеостанциями. Указанные значения в баллах носят условный характер и показывают процент времени, в течение которого, в среднем, лазерный луч высотомера отражался от облаков обратно.
T - Температура воздуха - температура, измеренная на высоте 2 м над землей.
Td - Температура точки росы - температура, при понижении до которой содержащийся в воздухе водяной пар достигнет насыщения.
f - Относительная влажность воздуха - влажноcть воздуха, измеренная на высоте 2 м над землей.
Te - Эффективная температура - температура, которую ощущает одетый по сезону человек в тени. Характеристика душности погоды. При расчете учитывается влияние влажности воздуха и скорости ветра на теплоощущения человека.
Tes - Эффективная температура на солнце - температура, которую ощущает человек, с поправкой на солнечный нагрев. Характеристика знойности погоды. Зависит от высоты солнца над горизонтом, облачности и скорости ветра. Ночью, в пасмурную погоду, а также при ветре 12 м/с и более поправка равна нулю.
P - Атмосферное давление - приведенное к уровню моря атмосферное давление.
Po - Атмосферное давление - измеренное на уровне метеостанции атмосферное давление.
Tmin - Минимальная температура - минимум температуры воздуха на высоте 2 м над землей.
Tmax - Максимальная температура - максимум температуры воздуха на высоте 2 м над землей.
R - Количество осадков - Количество выпавших осадков за 3 или 6 часов, мм.
SD - Снежный покров - Высота снежного покрова, см.